PBO Station Position Time Series. Reference Frame : NAM14
Format Version,1.1.1
4-character ID,CVHS
Station name,Covina_HighSCIGN
Begin Date, 1998-07-25
End Date, 2023-06-26
Release Date, 2023-06-27
Reference position, 34.0820110358 North Latitude, -117.9017177051 East Longitude, 119.09254 meters elevation,
Date, North (mm), East (mm), Vertical (mm), North Std. Deviation (mm), East Std. Deviation (mm),              Vertical Std. Deviation (mm), Quality,
1998-07-25,0.00, 0.00, 0.00, 2.10, 1.90, 8.40, repro,
1998-07-26,0.69, -0.12, -1.70, 2.04, 1.83, 7.96, repro,
1998-07-27,1.13, 0.15, 0.41, 2.17, 1.95, 8.83, repro,
1998-07-28,-0.10, 0.12, -1.24, 2.07, 1.86, 8.09, repro,
1998-07-29,-0.86, 0.82, 3.66, 2.04, 1.83, 7.97, repro,
1998-07-30,0.71, -0.99, 3.97, 2.08, 1.82, 8.14, repro,
1998-07-31,0.43, -0.12, 0.01, 2.12, 1.90, 8.32, repro,
1998-08-01,-0.12, 0.41, 5.28, 2.10, 1.96, 8.27, repro,
1998-08-02,1.65, 0.05, -2.40, 2.12, 1.92, 8.50, repro,
1998-08-03,1.35, -0.94, 7.74, 2.10, 1.89, 8.32, repro,
1998-08-04,0.14, 0.14, -0.08, 2.06, 1.87, 8.13, repro,
1998-08-05,0.16, -1.14, -1.69, 2.11, 1.91, 8.40, repro,
1998-08-06,-0.44, 0.32, 4.12, 2.05, 1.84, 7.98, repro,
1998-08-07,0.56, -1.77, -2.79, 2.07, 1.84, 8.20, repro,
1998-08-08,-1.13, -0.20, 3.21, 2.05, 1.83, 8.17, repro,
1998-08-09,-0.89, -1.51, 4.90, 2.05, 1.83, 7.96, repro,
1998-08-10,2.00, -0.66, 5.44, 2.05, 1.82, 7.94, repro,
1998-08-11,0.67, 0.31, 2.85, 2.03, 1.82, 7.88, repro,
1998-08-12,0.61, -0.62, 2.23, 2.10, 1.91, 8.26, repro,
1998-08-13,-0.18, 0.33, -4.20, 2.01, 1.82, 7.89, repro,
1998-08-14,-0.33, 0.21, 4.15, 2.14, 1.86, 8.36, repro,
1998-08-15,-0.10, -1.05, 15.76, 2.11, 1.82, 8.14, repro,
1998-08-16,-1.04, -1.04, -1.57, 2.17, 1.86, 8.29, repro,
1998-08-17,1.68, -0.61, -7.66, 2.10, 1.81, 8.09, repro,
1998-08-18,0.88, -0.65, -1.09, 2.01, 1.80, 7.81, repro,
1998-08-19,-0.11, -0.51, 4.55, 2.02, 1.81, 7.91, repro,
1998-08-20,1.55, -0.69, -2.07, 2.01, 1.80, 7.82, repro,
1998-08-21,1.45, -0.50, -2.83, 2.04, 1.83, 7.98, repro,
1998-08-22,0.50, 0.73, -7.67, 2.05, 1.84, 8.02, repro,
1998-08-23,0.08, -0.83, 5.89, 2.03, 1.81, 7.86, repro,
1998-08-24,-0.69, -0.45, 7.39, 2.02, 1.79, 7.79, repro,
1998-08-25,0.85, -0.13, 8.29, 2.03, 1.81, 7.88, repro,
1998-08-26,0.46, 0.52, 2.05, 2.06, 1.82, 7.93, repro,
1998-08-27,2.11, -0.82, 0.32, 2.08, 1.80, 7.91, repro,
1998-08-28,1.10, -0.39, 2.08, 2.03, 1.81, 7.94, repro,
1998-08-29,2.34, -0.58, 2.10, 2.01, 1.81, 7.89, repro,
1998-08-30,1.83, -0.82, 5.27, 2.11, 1.84, 8.14, repro,
1998-08-31,1.03, -0.68, -0.01, 2.10, 1.88, 8.32, repro,
1998-09-01,-0.16, 0.42, 9.68, 2.09, 1.85, 8.21, repro,
1998-09-02,1.19, 1.86, 6.52, 2.16, 1.96, 8.47, repro,
1998-09-03,0.80, -0.75, 5.61, 2.03, 1.82, 7.94, repro,
1998-09-04,1.91, 0.17, 7.04, 2.05, 1.87, 8.15, repro,
1998-09-05,1.68, 1.43, 2.80, 2.02, 1.82, 7.92, repro,
1998-09-06,1.27, 0.75, 2.45, 2.01, 1.79, 7.80, repro,
1998-09-07,2.54, -0.06, 6.18, 2.06, 1.88, 8.10, repro,
1998-09-08,0.50, -0.52, 11.92, 2.13, 1.90, 8.49, repro,
1998-09-09,1.37, -0.30, 5.45, 2.06, 1.87, 8.10, repro,
1998-09-10,0.75, -0.95, 11.27, 2.03, 1.83, 7.98, repro,
1998-09-11,0.01, -0.93, 5.69, 2.08, 1.81, 8.01, repro,
1998-09-12,0.56, 0.66, 6.76, 2.02, 1.82, 7.92, repro,
1998-09-13,0.19, -0.06, 6.04, 2.02, 1.80, 7.86, repro,
1998-09-14,0.28, -1.62, 15.53, 2.16, 1.91, 8.34, repro,
1998-09-15,-0.20, -1.53, 6.91, 2.03, 1.81, 7.86, repro,
1998-09-16,1.22, -1.11, 14.16, 2.05, 1.81, 7.90, repro,
1998-09-17,-0.86, -1.14, 4.62, 2.12, 1.81, 8.08, repro,
1998-09-18,0.68, -0.28, 0.97, 2.10, 1.81, 8.02, repro,
1998-09-19,0.14, -0.40, 1.01, 2.01, 1.79, 7.81, repro,
1998-09-20,-0.36, -1.15, 16.44, 2.05, 1.86, 7.97, repro,
1998-09-21,0.08, -0.81, 10.12, 2.05, 1.85, 8.01, repro,
1998-09-22,1.16, 0.65, 3.49, 2.15, 1.87, 8.46, repro,
1998-09-23,-0.18, 0.49, 3.21, 2.29, 1.94, 8.92, repro,
1998-09-24,-0.28, -2.07, 2.86, 2.18, 1.94, 8.47, repro,
1998-09-25,0.45, 0.05, -0.99, 2.37, 2.09, 9.06, repro,
1998-09-26,-1.24, -0.63, 9.21, 2.34, 2.11, 9.32, repro,
1998-09-27,-0.63, 0.75, -0.64, 2.14, 1.89, 8.26, repro,
1998-09-28,0.95, 0.45, 4.08, 2.27, 1.98, 8.62, repro,
1998-09-29,0.55, -0.55, 3.05, 2.09, 1.83, 7.97, repro,
1998-09-30,0.81, -0.94, 1.92, 2.11, 1.90, 8.26, repro,
1998-10-01,-0.14, -0.59, 1.40, 2.28, 2.06, 8.63, repro,
1998-10-02,2.98, -1.15, 0.02, 2.22, 1.96, 8.38, repro,
1998-10-03,0.68, -1.78, -3.31, 2.39, 2.11, 9.11, repro,
1998-10-04,-0.43, -0.97, -5.26, 2.39, 1.98, 9.12, repro,
1998-10-05,2.28, -1.31, 12.72, 2.20, 2.01, 8.58, repro,
1998-10-06,0.22, -0.62, 2.87, 2.31, 2.02, 9.00, repro,
1998-10-07,1.67, -0.99, 8.99, 2.32, 2.10, 9.00, repro,
1998-10-08,1.24, -2.38, 8.14, 2.32, 1.99, 8.92, repro,
1998-10-09,0.63, -1.15, -0.78, 2.30, 2.06, 8.78, repro,
1998-10-10,0.47, -1.42, 5.78, 2.12, 1.92, 8.10, repro,
1998-10-11,0.70, 0.46, 2.62, 2.25, 1.97, 8.85, repro,
1998-10-12,0.43, 0.78, 1.45, 2.34, 2.08, 9.00, repro,
1998-10-13,1.41, -1.31, 6.48, 2.21, 1.97, 8.41, repro,
1998-10-14,1.17, -0.82, 1.14, 2.27, 1.99, 8.92, repro,
1998-10-15,0.55, 0.46, 4.82, 2.30, 1.98, 8.80, repro,
1998-10-16,1.73, -0.27, -0.49, 2.26, 2.05, 8.68, repro,
1998-10-17,1.17, 0.38, 2.35, 2.27, 2.00, 8.96, repro,
1998-10-18,0.66, -0.05, 0.13, 2.39, 2.31, 9.19, repro,
1998-10-19,0.61, 2.01, -9.84, 2.48, 2.39, 9.73, repro,
1998-10-20,-0.53, -0.84, 1.20, 2.21, 1.93, 8.52, repro,
1998-10-21,1.01, -0.61, -1.19, 2.42, 2.12, 9.32, repro,
1998-10-22,-0.80, -0.88, -2.76, 2.20, 1.96, 8.33, repro,
1998-10-23,-1.07, -0.72, -6.07, 2.24, 1.97, 8.38, repro,
1998-10-24,0.89, 0.43, -2.09, 2.50, 2.33, 9.54, repro,
1998-10-25,-0.89, -1.18, 0.49, 2.09, 1.87, 8.14, repro,
1998-10-26,-2.43, 0.36, 4.62, 2.22, 1.97, 8.45, repro,
1998-10-27,-0.72, 0.53, -0.54, 2.19, 1.97, 8.30, repro,
1998-10-28,-3.52, 0.54, -2.90, 2.49, 2.27, 9.49, repro,
1998-10-29,0.60, -2.03, 7.34, 2.07, 1.87, 8.12, repro,
1998-10-30,0.82, -1.93, 7.87, 2.13, 1.93, 8.19, repro,
1998-10-31,0.34, -0.60, -1.02, 2.24, 1.92, 8.66, repro,
1998-11-01,-1.76, 0.21, -5.98, 2.20, 1.95, 8.32, repro,
1998-11-02,-0.35, 0.01, -5.50, 2.21, 1.93, 8.72, repro,
1998-11-03,1.20, -0.49, -3.37, 2.36, 2.08, 9.29, repro,
1998-11-04,-1.18, -3.51, 3.82, 2.38, 2.25, 9.43, repro,
1998-11-05,2.60, -1.70, -0.76, 2.26, 2.04, 8.71, repro,
1998-11-06,-0.61, -1.67, 4.23, 2.14, 1.94, 8.32, repro,
1998-11-07,1.96, -1.30, -2.09, 2.11, 1.86, 8.42, repro,
1998-11-08,-0.04, 2.46, -5.96, 2.18, 2.02, 8.49, repro,
1998-11-09,-0.67, -0.32, -0.41, 2.09, 1.86, 8.00, repro,
1998-11-10,0.32, -0.67, 7.35, 2.14, 1.91, 8.28, repro,
1998-11-11,2.07, 0.76, -2.56, 2.20, 1.94, 8.49, repro,
1998-11-12,-0.43, -3.05, 2.91, 2.21, 1.91, 8.35, repro,
1998-11-13,0.55, -2.21, -2.01, 2.41, 2.25, 9.61, repro,
1998-11-14,0.16, -0.11, 2.34, 2.17, 1.91, 8.37, repro,
1998-11-15,-1.22, -2.20, 13.08, 2.22, 1.91, 8.70, repro,
1998-11-16,-0.63, -1.32, 12.18, 2.14, 1.85, 8.16, repro,
1998-11-17,0.22, -0.86, -0.21, 2.15, 1.82, 8.17, repro,
1998-11-18,0.21, -0.64, 1.87, 2.10, 1.80, 8.01, repro,
1998-11-19,1.23, -2.43, 2.02, 2.11, 1.84, 8.10, repro,
1998-11-20,0.94, -2.05, 3.01, 2.05, 1.80, 7.89, repro,
1998-11-21,1.52, -1.73, 14.25, 2.39, 2.05, 9.32, repro,
1998-11-22,1.04, -2.15, 7.03, 2.07, 1.83, 7.99, repro,
1998-11-23,0.86, -0.96, 10.53, 2.09, 1.83, 8.05, repro,
1998-11-24,-0.27, -1.26, -3.90, 2.08, 1.80, 8.02, repro,
1998-11-25,1.01, -2.31, 1.98, 2.05, 1.81, 7.88, repro,
1998-11-26,0.37, -2.23, 2.96, 2.13, 1.87, 8.12, repro,
1998-11-27,2.51, -1.88, 12.49, 2.15, 1.86, 8.29, repro,
1998-11-28,0.11, -2.01, 4.63, 2.12, 1.85, 8.16, repro,
1998-11-29,0.04, 0.19, 3.56, 2.10, 1.83, 8.16, repro,
1998-11-30,1.09, -2.04, 1.18, 2.21, 1.89, 8.28, repro,
1998-12-01,1.89, -2.17, -0.44, 2.16, 1.89, 8.17, repro,
1998-12-02,1.24, -0.82, 3.32, 2.10, 1.82, 8.13, repro,
1998-12-03,2.34, -3.51, 6.04, 2.14, 1.84, 8.21, repro,
1998-12-04,1.51, -2.66, 3.77, 2.22, 1.94, 8.29, repro,
1998-12-05,0.83, -0.60, -0.92, 2.13, 1.83, 8.01, repro,
1998-12-06,-1.71, -0.78, 2.09, 2.13, 1.93, 8.25, repro,
1998-12-07,1.55, -2.61, 3.81, 2.14, 1.96, 8.31, repro,
1998-12-08,0.94, -0.68, -8.78, 2.32, 2.07, 9.00, repro,
1998-12-09,0.29, -3.55, 2.27, 2.12, 1.92, 8.24, repro,
1998-12-10,1.38, -0.82, -4.84, 2.22, 2.07, 8.61, repro,
1998-12-11,-0.03, -0.25, 0.71, 2.32, 2.21, 9.05, repro,
1998-12-12,1.88, -3.29, -0.44, 2.14, 1.93, 8.27, repro,
1998-12-13,0.82, -2.70, -4.34, 2.11, 1.93, 8.30, repro,
1998-12-14,1.74, -2.50, -8.42, 2.24, 1.97, 8.88, repro,
1998-12-15,3.99, -2.52, 1.12, 2.14, 1.90, 8.43, repro,
1998-12-16,-0.75, -5.25, -6.02, 2.13, 1.93, 8.24, repro,
1998-12-17,0.97, -2.16, -0.57, 2.00, 1.80, 7.87, repro,
1998-12-18,0.03, -1.04, -0.59, 2.56, 2.18, 10.13, repro,
1998-12-19,0.73, -3.23, -1.24, 2.10, 1.91, 8.14, repro,
1998-12-20,-0.09, -1.11, 2.61, 2.15, 1.89, 8.35, repro,
1998-12-21,1.96, -2.45, 3.38, 2.16, 2.04, 8.47, repro,
1998-12-22,-0.55, -1.52, -4.14, 2.30, 2.08, 8.90, repro,
1998-12-23,0.62, -2.40, -4.72, 2.13, 1.94, 8.27, repro,
1998-12-24,0.04, -2.36, 0.78, 2.21, 1.97, 8.58, repro,
1998-12-25,3.14, -2.56, -7.56, 2.52, 2.33, 10.01, repro,
1998-12-27,2.09, -3.07, -0.64, 3.22, 2.88, 12.39, repro,
1998-12-31,0.35, -4.74, 7.45, 2.31, 2.06, 8.81, repro,
1999-01-01,0.77, -2.52, -3.43, 2.24, 2.01, 8.82, repro,
1999-01-02,0.15, -2.16, -3.65, 2.62, 2.40, 9.89, repro,
1999-01-03,1.47, -2.52, -2.38, 2.16, 2.01, 8.63, repro,
1999-01-04,0.62, -1.57, -5.44, 2.42, 2.12, 9.78, repro,
1999-01-05,1.93, -5.95, 1.52, 2.53, 2.42, 10.31, repro,
1999-01-06,-1.13, -1.51, 0.90, 2.44, 2.27, 10.02, repro,
1999-01-13,1.14, -1.23, -10.71, 2.92, 2.56, 11.35, repro,
1999-01-14,2.01, -2.76, -3.56, 2.40, 2.05, 9.32, repro,
1999-01-15,1.58, -2.72, -0.97, 2.76, 2.48, 10.77, repro,
1999-01-16,0.63, -1.56, -4.57, 2.49, 2.16, 9.19, repro,
1999-01-19,0.57, -0.62, -7.61, 2.16, 1.92, 8.37, repro,
1999-01-23,3.43, -1.46, 1.90, 3.05, 2.72, 12.21, repro,
1999-01-25,-95.48, 57.59, -51.34, 1102.00, 1075.74, 1564.79, repro,
1999-01-27,2.87, -0.48, -13.06, 4.36, 3.43, 16.74, repro,
1999-01-28,-0.00, -4.84, 0.23, 4.79, 4.62, 19.68, repro,
1999-01-29,2.31, -2.81, 9.42, 2.25, 1.90, 8.85, repro,
1999-01-30,0.88, -0.79, 3.21, 2.35, 2.05, 9.37, repro,
1999-01-31,2.11, -0.55, -4.03, 2.29, 2.06, 9.25, repro,
1999-02-01,0.89, -2.56, 5.67, 2.05, 1.80, 7.96, repro,
1999-02-02,2.74, -2.14, 2.27, 2.22, 1.89, 8.78, repro,
1999-02-03,0.17, -2.73, -0.75, 2.23, 1.90, 8.87, repro,
1999-02-04,3.11, -4.63, 10.94, 2.15, 1.84, 8.40, repro,
1999-02-05,2.29, -2.96, -3.30, 2.16, 1.88, 8.58, repro,
1999-02-06,1.48, -2.45, -1.22, 2.29, 2.06, 9.48, repro,
1999-02-07,2.83, -3.75, 2.11, 2.27, 1.94, 8.88, repro,
1999-02-08,1.61, -2.14, 6.23, 2.06, 1.89, 8.31, repro,
1999-02-09,0.74, -4.61, 10.64, 2.33, 1.96, 9.09, repro,
1999-02-10,1.50, -2.44, -0.83, 2.17, 1.89, 8.63, repro,
1999-02-11,3.03, -1.02, -10.41, 2.27, 1.94, 8.95, repro,
1999-02-12,2.08, -1.59, -5.97, 2.32, 1.97, 9.38, repro,
1999-02-13,1.25, -1.43, -15.29, 2.09, 1.86, 8.23, repro,
1999-02-14,0.79, -2.08, -8.26, 2.21, 1.97, 8.75, repro,
1999-02-15,0.82, -2.33, -0.58, 2.20, 1.91, 8.73, repro,
1999-02-16,-0.10, -1.81, -1.70, 2.13, 1.95, 8.71, repro,
1999-02-17,1.14, -3.11, 3.28, 2.19, 1.87, 8.55, repro,
1999-02-18,1.25, -1.85, 6.57, 2.12, 1.90, 8.46, repro,
1999-02-19,0.85, -3.50, 1.16, 2.20, 1.92, 8.70, repro,
1999-02-20,1.20, -2.75, 2.36, 2.10, 1.87, 8.24, repro,
1999-02-21,2.10, -2.23, -3.96, 2.08, 1.84, 8.02, repro,
1999-02-22,1.88, -3.00, -9.59, 2.12, 1.83, 8.16, repro,
1999-02-23,1.31, -2.36, -10.22, 2.04, 1.80, 7.82, repro,
1999-02-24,0.73, -2.39, -5.85, 2.02, 1.80, 7.83, repro,
1999-02-25,0.57, -2.60, -2.41, 2.24, 1.99, 8.67, repro,
1999-02-26,1.72, -2.33, -8.76, 2.09, 1.85, 8.12, repro,
1999-02-27,3.39, -2.20, -6.37, 2.14, 1.84, 8.16, repro,
1999-02-28,2.35, -4.03, -11.41, 4.90, 4.58, 20.25, repro,
1999-03-03,-0.77, -1.32, -11.28, 2.07, 1.85, 8.01, repro,
1999-03-04,0.94, -3.05, -8.50, 2.02, 1.78, 7.76, repro,
1999-03-05,1.20, -2.72, -11.35, 2.03, 1.78, 7.81, repro,
1999-03-06,-0.37, -2.64, -14.29, 2.07, 1.87, 8.09, repro,
1999-03-07,-0.58, -3.45, -10.72, 2.10, 1.86, 8.15, repro,
1999-03-08,-0.42, -3.04, -12.80, 2.02, 1.79, 7.81, repro,
1999-03-09,0.85, -3.20, -8.29, 2.02, 1.80, 7.83, repro,
1999-03-10,0.99, -2.62, -12.49, 2.17, 1.95, 8.31, repro,
1999-03-11,1.28, -2.60, -12.01, 2.06, 1.85, 7.90, repro,
1999-03-12,0.89, -1.39, -20.27, 2.62, 2.23, 10.24, repro,
1999-03-14,-0.29, -3.84, -10.31, 2.09, 1.85, 8.06, repro,
1999-03-15,3.87, -2.06, -6.82, 2.16, 1.98, 8.51, repro,
1999-03-16,1.69, -4.20, -13.45, 2.48, 2.13, 9.55, repro,
1999-03-17,1.24, -2.79, -18.44, 2.15, 1.90, 8.26, repro,
1999-03-18,0.93, -3.88, -8.94, 2.35, 2.24, 9.45, repro,
1999-03-19,0.68, -3.74, -17.73, 2.35, 2.10, 9.44, repro,
1999-03-20,2.17, -3.59, -12.52, 2.21, 2.05, 8.90, repro,
1999-03-21,2.14, -4.88, -5.35, 2.10, 1.91, 8.16, repro,
1999-03-22,2.40, -2.75, -15.22, 2.46, 2.21, 9.80, repro,
1999-03-23,2.00, -2.99, -16.18, 2.13, 1.94, 8.42, repro,
1999-03-24,0.40, -4.64, -11.68, 2.33, 2.06, 9.22, repro,
1999-03-25,1.46, -3.83, -11.38, 2.45, 2.21, 9.90, repro,
1999-03-26,1.35, -3.37, -7.00, 2.33, 2.13, 9.29, repro,
1999-03-27,2.65, -2.75, -15.12, 2.10, 1.91, 8.21, repro,
1999-03-28,1.54, -4.10, -14.08, 2.71, 2.66, 11.00, repro,
1999-03-29,1.81, -2.90, -12.76, 2.32, 2.13, 9.27, repro,
1999-03-30,0.22, -2.98, -15.03, 2.25, 1.97, 8.82, repro,
1999-03-31,0.35, -2.83, -19.06, 2.30, 1.95, 8.84, repro,
1999-04-01,2.10, -3.03, -10.25, 2.24, 1.93, 8.60, repro,
1999-04-02,1.11, -4.33, -15.44, 2.21, 1.89, 8.43, repro,
1999-04-03,1.18, -1.86, -14.67, 2.11, 1.83, 8.07, repro,
1999-04-04,1.62, -3.58, -11.54, 2.07, 1.80, 7.85, repro,
1999-04-05,1.17, -1.80, -12.98, 2.33, 2.04, 9.02, repro,
1999-04-06,0.75, -2.83, -13.11, 2.18, 1.92, 8.40, repro,
1999-04-07,2.13, -2.93, -6.53, 2.03, 1.81, 7.90, repro,
1999-04-08,2.80, -2.98, -8.73, 2.05, 1.80, 7.96, repro,
1999-04-09,3.40, -3.80, -5.59, 2.15, 1.92, 8.59, repro,
1999-04-10,2.33, -3.70, -9.97, 2.34, 2.06, 9.09, repro,
1999-04-11,1.87, -3.61, -9.52, 2.09, 1.82, 8.07, repro,
1999-04-12,1.66, -4.19, -11.14, 2.01, 1.79, 7.87, repro,
1999-04-13,0.99, -2.37, -19.72, 2.07, 1.84, 8.11, repro,
1999-04-14,2.08, -2.74, -14.39, 2.62, 2.31, 10.32, repro,
1999-04-15,1.95, -3.61, -20.45, 2.35, 2.13, 9.27, repro,
1999-04-16,1.32, -3.14, -7.00, 2.02, 1.84, 8.00, repro,
1999-04-17,1.73, -3.80, -10.90, 2.10, 1.80, 8.16, repro,
1999-04-18,3.06, -1.86, -13.26, 2.02, 1.82, 7.97, repro,
1999-04-19,1.53, -3.39, -4.03, 2.01, 1.78, 7.86, repro,
1999-04-20,2.96, -3.17, 4.51, 2.05, 1.81, 8.14, repro,
1999-04-21,2.49, -1.62, -3.69, 2.06, 1.82, 8.27, repro,
1999-04-22,1.30, -3.23, -3.50, 2.06, 1.84, 8.28, repro,
1999-04-23,1.59, -4.81, 6.91, 2.04, 1.81, 7.97, repro,
1999-04-24,1.52, -4.05, -1.33, 2.02, 1.77, 7.78, repro,
1999-04-25,1.83, -4.77, 4.06, 2.52, 2.36, 10.01, repro,
1999-04-26,3.30, -2.08, -3.53, 2.03, 1.82, 7.99, repro,
1999-04-27,2.23, -3.90, 1.63, 2.05, 1.85, 8.12, repro,
1999-04-28,1.47, -3.44, -5.51, 2.03, 1.84, 8.07, repro,
1999-04-29,1.85, -5.53, 0.14, 2.04, 1.84, 7.95, repro,
1999-04-30,2.06, -3.09, -2.76, 2.05, 1.86, 8.06, repro,
1999-05-01,2.82, -5.04, 0.78, 2.06, 1.81, 7.99, repro,
1999-05-02,2.35, -3.39, -0.63, 2.03, 1.89, 8.13, repro,
1999-05-03,1.62, -4.37, 9.04, 2.14, 2.02, 8.59, repro,
1999-05-04,2.23, -3.01, 4.81, 2.07, 1.89, 8.14, repro,
1999-05-05,2.09, -4.18, 2.04, 2.12, 1.93, 8.23, repro,
1999-05-06,3.14, -3.84, -5.25, 2.05, 1.84, 7.97, repro,
1999-05-07,2.76, -3.46, -2.41, 2.02, 1.82, 8.02, repro,
1999-05-08,2.53, -3.29, -0.56, 2.12, 1.91, 8.44, repro,
1999-05-09,2.43, -2.70, -6.60, 2.05, 1.90, 8.09, repro,
1999-05-10,3.01, -3.65, -1.90, 2.03, 1.81, 7.97, repro,
1999-05-11,2.46, -2.67, -8.29, 2.05, 1.89, 8.15, repro,
1999-05-12,2.60, -3.07, -10.63, 2.05, 1.86, 8.08, repro,
1999-05-13,1.57, -3.35, 2.51, 2.05, 1.89, 8.12, repro,
1999-05-14,1.31, -2.99, -4.12, 2.07, 1.91, 8.16, repro,
1999-05-15,2.92, -3.78, -3.84, 2.06, 1.90, 8.22, repro,
1999-05-16,1.97, -2.48, -8.07, 2.12, 1.93, 8.45, repro,
1999-05-17,3.40, -3.41, -4.92, 2.08, 1.93, 8.35, repro,
1999-05-18,2.21, -4.00, -3.44, 2.23, 1.97, 8.97, repro,
1999-05-19,2.56, -3.90, -4.82, 2.05, 1.86, 8.24, repro,
1999-05-20,2.25, -3.42, -6.84, 2.06, 1.91, 8.27, repro,
1999-05-21,2.58, -4.36, -2.80, 2.05, 1.89, 8.15, repro,
1999-05-22,3.23, -3.60, 2.49, 2.02, 1.82, 8.05, repro,
1999-05-23,3.19, -4.34, -9.12, 2.06, 1.90, 8.19, repro,
1999-05-24,3.03, -4.88, -0.97, 2.15, 1.91, 8.51, repro,
1999-05-25,2.66, -3.34, -3.12, 2.03, 1.83, 8.09, repro,
1999-05-26,3.09, -2.97, -8.87, 2.03, 1.88, 8.05, repro,
1999-05-27,3.83, -2.41, -6.96, 2.00, 1.82, 7.99, repro,
1999-05-28,2.00, -3.59, -3.37, 2.07, 1.80, 8.16, repro,
1999-05-29,1.59, -4.52, -1.24, 1.99, 1.78, 7.82, repro,
1999-05-30,3.07, -3.94, -9.38, 2.02, 1.81, 8.01, repro,
1999-05-31,2.16, -4.95, -5.38, 2.03, 1.81, 7.98, repro,
1999-06-01,3.60, -4.52, 6.41, 2.05, 1.82, 8.04, repro,
1999-06-02,1.66, -3.53, 4.43, 2.00, 1.80, 7.90, repro,
1999-06-03,2.30, -4.79, 7.84, 2.08, 1.85, 8.12, repro,
1999-06-04,3.19, -5.43, 6.06, 2.03, 1.80, 8.05, repro,
1999-06-05,4.69, -4.33, 5.56, 2.01, 1.80, 7.97, repro,
1999-06-06,3.59, -4.75, -4.69, 2.13, 1.93, 8.38, repro,
1999-06-07,3.29, -4.03, -1.25, 2.07, 1.87, 8.13, repro,
1999-06-08,2.48, -4.91, 10.91, 2.02, 1.79, 7.86, repro,
1999-06-09,2.03, -5.36, 9.53, 2.01, 1.81, 8.00, repro,
1999-06-10,3.15, -5.26, 10.88, 2.05, 1.83, 8.08, repro,
1999-06-11,3.47, -5.82, -0.49, 2.08, 1.85, 8.35, repro,
1999-06-12,2.62, -5.38, 0.55, 2.01, 1.80, 7.89, repro,
1999-06-13,2.68, -5.23, 5.28, 2.04, 1.83, 8.02, repro,
1999-06-14,3.29, -6.31, 3.73, 2.23, 1.86, 8.79, repro,
1999-06-15,2.43, -6.14, 3.08, 2.13, 1.89, 8.32, repro,
1999-06-16,4.10, -5.31, 2.96, 2.03, 1.81, 8.00, repro,
1999-06-17,2.85, -5.30, -0.33, 2.06, 1.82, 8.06, repro,
1999-06-18,2.63, -5.24, -0.72, 2.00, 1.78, 7.85, repro,
1999-06-19,2.41, -5.14, 6.47, 2.04, 1.82, 8.06, repro,
1999-06-20,2.68, -5.60, 8.62, 2.00, 1.79, 7.94, repro,
1999-06-21,2.07, -6.74, 4.33, 2.06, 1.82, 8.21, repro,
1999-06-22,3.78, -6.08, 8.29, 2.10, 1.82, 8.23, repro,
1999-06-23,2.85, -5.21, 4.48, 2.04, 1.80, 8.02, repro,
1999-06-24,2.25, -5.37, 3.67, 2.07, 1.82, 8.24, repro,
1999-06-25,2.03, -4.96, 11.48, 2.13, 1.90, 8.46, repro,
1999-06-26,2.14, -6.24, 9.44, 2.13, 1.89, 8.47, repro,
1999-06-27,2.22, -5.62, 11.49, 2.12, 1.84, 8.56, repro,
1999-06-28,3.20, -6.44, 5.65, 2.08, 1.85, 8.13, repro,
1999-06-29,1.47, -4.40, 2.57, 2.28, 1.99, 8.99, repro,
1999-06-30,2.34, -5.46, 5.70, 2.16, 1.88, 8.70, repro,
1999-07-01,4.41, -1.73, 20.53, 5.35, 4.61, 19.78, repro,
1999-07-02,1.76, -5.20, 9.17, 2.14, 1.86, 8.71, repro,
1999-07-03,2.61, -5.75, 10.42, 2.14, 1.84, 8.65, repro,
1999-07-04,2.02, -5.12, 7.47, 2.09, 1.84, 8.39, repro,
1999-07-05,2.66, -5.93, 13.45, 2.07, 1.85, 8.34, repro,
1999-07-06,2.79, -6.67, 13.97, 2.18, 1.95, 8.85, repro,
1999-07-07,3.29, -6.24, 9.76, 2.36, 2.05, 9.23, repro,
1999-07-08,3.77, -5.52, 4.56, 2.21, 1.96, 8.87, repro,
1999-07-09,0.53, -7.76, 11.80, 2.17, 1.86, 8.48, repro,
1999-07-10,3.30, -6.96, 9.35, 2.12, 1.85, 8.40, repro,
1999-07-11,2.49, -5.60, 1.18, 2.17, 1.88, 8.54, repro,
1999-07-12,3.78, -5.72, 0.01, 2.15, 1.88, 8.53, repro,
1999-07-13,2.04, -5.84, 1.00, 2.11, 1.85, 8.39, repro,
1999-07-14,2.76, -5.36, -0.25, 2.10, 1.86, 8.41, repro,
1999-07-15,1.47, -6.46, 4.39, 2.07, 1.82, 8.30, repro,
1999-07-16,1.91, -5.53, 13.18, 2.13, 1.84, 8.64, repro,
1999-07-17,2.71, -4.10, -1.23, 2.06, 1.83, 8.25, repro,
1999-07-18,2.35, -6.66, 1.39, 2.15, 1.85, 8.65, repro,
1999-07-19,2.04, -5.01, -6.65, 2.17, 1.86, 8.66, repro,
1999-07-20,1.95, -5.75, 3.35, 2.18, 1.86, 8.66, repro,
1999-07-21,1.07, -2.74, 1.78, 2.09, 1.94, 8.21, repro,
1999-07-22,-0.34, -1.46, -1.23, 2.38, 2.07, 9.15, repro,
1999-07-23,1.44, -3.85, 0.94, 2.12, 1.83, 8.41, repro,
1999-07-24,-0.22, -3.74, 4.96, 2.17, 1.94, 8.62, repro,
1999-07-25,0.95, -3.41, -1.40, 2.12, 1.82, 8.32, repro,
1999-07-26,0.55, -2.09, 4.34, 2.17, 1.87, 8.43, repro,
1999-07-27,1.00, -3.03, 5.56, 2.17, 1.92, 8.64, repro,
1999-07-28,1.82, -3.40, 5.14, 2.01, 1.80, 7.95, repro,
1999-07-29,0.38, -3.51, 3.33, 2.07, 1.84, 8.09, repro,
1999-07-30,1.81, -2.86, 18.46, 2.12, 1.91, 8.40, repro,
1999-07-31,0.33, -4.70, 2.91, 2.00, 1.78, 7.89, repro,
1999-08-01,0.57, -3.47, -1.57, 2.02, 1.79, 7.94, repro,
1999-08-02,1.48, -2.85, -5.37, 2.08, 1.86, 8.22, repro,
1999-08-03,-0.22, -4.03, 2.73, 2.29, 2.07, 8.94, repro,
1999-08-04,1.33, -3.33, -7.77, 2.12, 1.83, 8.42, repro,
1999-08-05,0.29, -3.83, 0.26, 2.09, 1.83, 8.08, repro,
1999-08-06,0.51, -3.72, 4.01, 2.19, 1.96, 8.54, repro,
1999-08-07,0.36, -4.52, 7.83, 2.03, 1.80, 8.04, repro,
1999-08-08,1.14, -2.75, 3.79, 2.02, 1.77, 7.93, repro,
1999-08-09,-0.43, -3.86, 8.38, 2.21, 2.02, 8.57, repro,
1999-08-10,1.12, -4.87, 7.78, 2.11, 1.91, 8.29, repro,
1999-08-11,0.25, -3.12, 2.53, 2.06, 1.86, 8.16, repro,
1999-08-12,0.64, -2.41, -4.87, 2.12, 1.90, 8.46, repro,
1999-08-13,0.18, -3.81, -3.51, 2.04, 1.79, 7.94, repro,
1999-08-14,0.97, -2.44, 0.87, 2.01, 1.77, 7.87, repro,
1999-08-15,1.23, -2.52, 0.06, 2.18, 1.85, 8.46, repro,
1999-08-16,2.36, -3.34, 3.11, 2.03, 1.79, 7.95, repro,
1999-08-17,1.77, -2.10, -1.14, 2.06, 1.86, 8.13, repro,
1999-08-18,-0.51, -2.65, -3.04, 2.01, 1.78, 7.89, repro,
1999-08-19,1.29, -3.92, 10.08, 2.00, 1.78, 7.91, repro,
1999-08-20,0.53, -3.11, 9.28, 2.08, 1.83, 8.10, repro,
1999-08-21,1.01, -1.51, -1.84, 2.02, 1.80, 8.02, repro,
1999-08-22,0.98, -3.17, -3.31, 2.03, 1.84, 8.06, repro,
1999-08-23,0.62, -2.54, 3.32, 2.16, 1.86, 8.39, repro,
1999-08-24,2.03, -1.65, -1.19, 2.11, 1.89, 8.46, repro,
1999-08-25,0.47, -1.64, 7.95, 2.10, 1.85, 8.22, repro,
1999-08-26,0.49, -2.48, 14.18, 2.22, 1.84, 8.76, repro,
1999-08-27,2.04, -1.87, 9.50, 2.10, 1.91, 8.33, repro,
1999-08-28,-0.71, -3.65, 8.91, 2.09, 1.88, 8.19, repro,
1999-08-29,1.46, -3.32, 9.01, 2.13, 1.91, 9.55, repro,
1999-08-30,0.94, -3.12, 8.95, 2.13, 1.92, 8.36, repro,
1999-08-31,1.16, -2.05, 3.15, 2.15, 1.93, 8.42, repro,
1999-09-01,1.96, -2.38, 1.09, 2.22, 1.92, 8.66, repro,
1999-09-02,2.81, -3.23, -0.53, 2.12, 1.90, 8.32, repro,
1999-09-03,0.45, -3.23, -4.87, 2.28, 2.01, 9.04, repro,
1999-09-04,1.35, -3.28, 4.24, 2.27, 1.99, 8.84, repro,
1999-09-05,1.12, -1.73, 0.38, 2.06, 1.87, 8.23, repro,
1999-09-06,1.49, -2.30, 7.91, 2.19, 1.93, 8.64, repro,
1999-09-07,1.06, -2.76, -3.63, 2.48, 1.99, 9.77, repro,
1999-09-08,0.41, -2.10, -0.63, 2.34, 1.98, 9.35, repro,
1999-09-09,0.61, -3.14, -5.06, 2.16, 1.85, 8.39, repro,
1999-09-10,2.43, -2.40, 0.82, 2.15, 1.86, 8.16, repro,
1999-09-11,1.09, -1.76, -7.29, 2.32, 1.96, 8.77, repro,
1999-09-12,2.78, -2.61, -5.60, 2.24, 1.93, 8.74, repro,
1999-09-13,1.21, -2.65, 2.45, 2.09, 1.78, 8.16, repro,
1999-09-14,1.83, -2.11, -5.31, 2.16, 1.89, 8.27, repro,
1999-09-15,1.41, -3.92, -0.84, 2.19, 1.89, 8.52, repro,
1999-09-16,0.89, -5.61, 7.46, 2.13, 1.84, 8.09, repro,
1999-09-17,1.47, -4.05, 5.89, 2.22, 1.89, 8.45, repro,
1999-09-18,2.13, -3.89, -0.19, 2.23, 1.90, 8.48, repro,
1999-09-19,2.00, -2.10, -4.91, 2.16, 1.89, 8.23, repro,
1999-09-20,0.71, -2.39, -1.43, 2.51, 2.16, 9.71, repro,
1999-09-21,1.95, -3.37, 0.33, 2.16, 1.83, 8.28, repro,
1999-09-22,1.71, -3.07, 1.17, 2.28, 1.94, 8.74, repro,
1999-09-23,1.32, -2.14, -0.86, 2.19, 1.95, 8.46, repro,
1999-09-24,1.85, -2.17, -2.61, 2.29, 1.98, 8.68, repro,
1999-09-25,2.55, -1.82, 8.72, 2.18, 1.95, 8.49, repro,
1999-09-26,0.92, -2.25, 0.23, 2.54, 2.31, 9.86, repro,
1999-09-27,2.88, -2.66, 5.53, 2.33, 2.04, 9.24, repro,
1999-09-28,2.75, -3.51, -0.97, 2.41, 2.15, 9.16, repro,
1999-09-29,1.44, -2.03, -1.32, 2.68, 2.62, 10.67, repro,
1999-09-30,1.00, -1.38, 2.87, 2.75, 2.48, 10.42, repro,
1999-10-01,0.89, -2.39, 1.15, 2.65, 2.35, 10.34, repro,
1999-10-02,3.26, -2.65, 3.48, 2.30, 2.08, 9.02, repro,
1999-10-03,3.68, -4.50, -0.08, 2.51, 2.28, 9.95, repro,
1999-10-04,4.44, -3.64, -4.47, 2.32, 2.17, 9.41, repro,
1999-10-05,1.55, -3.54, 2.13, 2.35, 2.13, 9.13, repro,
1999-10-06,-1.90, -1.31, 0.59, 2.74, 2.38, 10.55, repro,
1999-10-07,2.42, -2.66, -5.89, 2.71, 2.20, 10.44, repro,
1999-10-08,2.04, -1.95, -1.55, 2.36, 2.12, 8.81, repro,
1999-10-09,1.51, -2.59, 1.79, 2.20, 1.93, 8.38, repro,